Flag for Norway Weather past 2 weeks in Hammerfest, Norway

Now
50 °F

Drizzle. Broken clouds.


Feels Like: 46 °F
Forecast: 46 / 52 °F
Wind: 12 mph from Northwest

Location: Hammerfest

Current Time: Aug 1, 2015 at 2:32:11 PM

Latest Report: Aug 1, 2015 at 1:50 PM


Visibility: N/A

Pressure: 29.83 "Hg

Humidity: 94%

Dew point: 48 °F

Location of HammerfestLocation

Historic Weather in Hammerfest — Graph

°F

Hammerfest temperature yesterday

Maximum temperature yesterday: 64 °F (at 11:50 AM)
Minimum temperature yesterday: 50 °F (at 3:50 AM)
Average temperature yesterday: 58 °F

Past Weeks' High & Low Weather Summary

 TemperatureHumidityPressure
High68 °F (Jul 28, 2:50 PM)100% (Jul 25, 11:50 PM)29.98 "Hg (Jul 25, 11:50 PM)
Low43 °F (Jul 22, 10:50 PM)40% (Jul 30, 7:50 PM)29.50 "Hg (Jul 19, 7:50 AM)
Average53 °F74%29.71 "Hg
* Reported Jul 17 12:50 PM — Aug 1 12:50 PM, Hammerfest, Weather by CustomWeather, © 2015

Note: Actual official high and low records may vary slightly from our data, if they occured in-between our weather recording intervals... More about our weather records

Advertising

Hammerfest weather history for previous 24 hours

 ConditionsComfort  
Time TempWeatherWind HumidityBarometerVisibility
12:50 PM
Sat, Aug 1
50 °FDrizzle. Low clouds.2 mph94%29.83 "Hg4 mi
11:50 AM48 °FDrizzle. Broken clouds.5 mph100%29.83 "Hg4 mi
10:50 AM48 °FDrizzle. Broken clouds.3 mph100%29.80 "HgN/A
9:50 AM50 °FLight rain. Partly sunny.5 mph94%29.80 "HgN/A
8:50 AM48 °FDrizzle. Partly sunny.3 mph100%29.80 "HgN/A
7:50 AM50 °FBroken clouds.7 mph88%29.77 "HgN/A
6:50 AM50 °FPartly sunny.6 mph94%29.77 "HgN/A
5:50 AM50 °FPartly sunny.2 mph88%29.77 "HgN/A
4:50 AM48 °FPartly sunny.3 mph94%29.77 "HgN/A
3:50 AM50 °FPartly sunny.3 mph94%29.77 "HgN/A
2:50 AM48 °FPartly sunny.3 mph100%29.74 "HgN/A
1:50 AM48 °FPassing clouds.6 mph94%29.74 "HgN/A
12:50 AM48 °FPassing clouds.6 mph94%29.74 "HgN/A
11:50 PM
Fri, Jul 31
50 °FScattered clouds.6 mph88%29.71 "HgN/A
10:50 PM52 °FSunny.12 mph72%29.68 "Hg10 mi
9:50 PM57 °FSunny.6 mph55%29.68 "Hg10 mi
8:50 PM55 °FSunny.12 mph63%29.68 "Hg10 mi
7:50 PM57 °FSunny.9 mph59%29.68 "Hg10 mi
6:50 PM59 °FSunny.13 mph55%29.65 "Hg10 mi
5:50 PM61 °FSunny.13 mph52%29.65 "Hg10 mi
4:50 PM61 °FSunny.15 mph55%29.65 "Hg10 mi
3:50 PM63 °FSunny.13 mph52%29.65 "Hg10 mi
2:50 PM63 °FSunny.12 mph56%29.62 "Hg10 mi
Weather by CustomWeather, © 2015

See weather overviewHow to use our weather pages